Home   Weather   Mesquite   Past weeks
Flag for USA

Past Weather in Mesquite, Texas, USA — Yesterday and Last 2 Weeks

Now
88 °F

Mostly cloudy.


Feels Like: 102 °F
Forecast: 94 / 75 °F
Wind: 12 mph from South

Location: Mesquite Metro Airport

Current Time: Jun 19, 2019 at 2:03:32 pm

Latest Report: Jun 19, 2019 at 12:50 pm


Visibility: 10 mi

Pressure: 29.80 "Hg

Humidity: 75%

Dew Point: 79 °F

Location of MesquiteLocation

Past Weather in Mesquite — Graph

°F

Mesquite Temperature Yesterday

Maximum temperature yesterday: 91 °F (at 4:50 pm)
Minimum temperature yesterday: 69 °F (at 6:15 am)
Average temperature yesterday: 78 °F

High & Low Weather Summary for the Past Weeks

 TemperatureHumidityPressure
High93 °F (Jun 15, 4:50 pm)100% (Jun 5, 9:50 am)30.27 "Hg (Jun 5, 9:50 am)
Low60 °F (Jun 12, 4:55 am)27% (Jun 13, 1:50 pm)29.68 "Hg (Jun 6, 7:50 pm)
Average74 °F76%29.93 "Hg
* Reported Jun 4 11:50 am — Jun 19 11:50 am, Mesquite. Weather by CustomWeather, © 2019

Note: Actual official high and low records may vary slightly from our data, if they occured in-between our weather recording intervals... More about our weather records

Advertising

Mesquite Weather History for the Previous 24 Hours

Scroll right to see more
 ConditionsComfort  
Time TempWeatherWind HumidityBarometerVisibility
11:50 am
Wed, Jun 19
82 °FMostly cloudy.14 mph79%29.82 "Hg10 mi
10:50 am81 °FPartly sunny.9 mph79%29.84 "Hg10 mi
9:50 am77 °FPartly sunny.12 mph83%29.85 "Hg10 mi
8:50 am73 °FSunny.8 mph94%29.85 "Hg10 mi
7:50 am72 °FSunny.No wind100%29.84 "Hg10 mi
6:50 am70 °FSunny.No wind100%29.83 "Hg10 mi
6:35 am70 °FSunny.5 mph99%29.84 "Hg10 mi
6:15 am70 °FClear.7 mph98%29.83 "Hg10 mi
5:55 am71 °FClear.7 mph98%29.84 "Hg10 mi
5:35 am72 °FClear.No wind96%29.83 "Hg10 mi
5:15 am72 °FPassing clouds.No wind95%29.81 "Hg10 mi
4:35 am72 °FOvercast.13 mph93%29.85 "Hg7 mi
3:55 am80 °FPartly cloudy.14 mph77%29.83 "Hg10 mi
3:35 am77 °FPassing clouds.5 mph85%29.79 "Hg10 mi
3:15 am77 °FPassing clouds.5 mph84%29.81 "Hg10 mi
2:55 am77 °FClear.8 mph84%29.80 "Hg10 mi
2:35 am76 °FClear.8 mph87%29.80 "Hg10 mi
2:15 am77 °FClear.10 mph86%29.81 "Hg10 mi
1:55 am77 °FClear.9 mph88%29.81 "Hg10 mi
1:35 am76 °FClear.8 mph89%29.82 "Hg10 mi
12:55 am77 °FPassing clouds.6 mph89%29.85 "Hg10 mi
12:35 am77 °FPassing clouds.6 mph89%29.87 "Hg10 mi
12:15 am77 °FClear.5 mph89%29.88 "Hg10 mi
11:55 pm
Tue, Jun 18
77 °FClear.6 mph88%29.87 "Hg10 mi
11:35 pm78 °FClear.6 mph87%29.86 "Hg10 mi
10:55 pm78 °FClear.6 mph86%29.85 "Hg10 mi
10:35 pm78 °FClear.5 mph86%29.84 "Hg10 mi
10:15 pm78 °FClear.5 mph86%29.83 "Hg10 mi
9:55 pm79 °FClear.5 mph83%29.82 "Hg10 mi
9:35 pm79 °FClear.5 mph84%29.83 "Hg10 mi
9:15 pm80 °FClear.6 mph79%29.82 "Hg10 mi
8:55 pm82 °FClear.6 mph70%29.82 "Hg10 mi
7:50 pm86 °FSunny.8 mph59%29.82 "Hg10 mi
6:50 pm90 °FSunny.7 mph52%29.83 "Hg10 mi
5:50 pm90 °FPassing clouds.8 mph52%29.84 "Hg10 mi
4:50 pm91 °FSunny.8 mph44%29.87 "Hg10 mi
3:50 pm90 °FSunny.5 mph46%29.89 "Hg10 mi
2:50 pm88 °FSunny.6 mph55%29.90 "Hg10 mi
Weather by CustomWeather, © 2019

See weather overview